TimeEST,TemperatureF,Dew PointF,Humidity,Sea Level PressureIn,VisibilityMPH,Wind Direction,Wind SpeedMPH,Gust SpeedMPH,PrecipitationIn,Events,Conditions,WindDirDegrees,DateUTC
12:15 AM,55.4,51.8,88,30.34,10.0,East,3.5,-,N/A,,Clear,90,2012-11-30 05:15:00
12:35 AM,53.6,51.8,94,30.33,10.0,Calm,Calm,-,N/A,,Clear,0,2012-11-30 05:35:00
12:55 AM,53.6,51.8,94,30.33,10.0,Calm,Calm,-,N/A,,Clear,0,2012-11-30 05:55:00
1:15 AM,53.6,50.0,88,30.33,10.0,Calm,Calm,-,N/A,,Clear,0,2012-11-30 06:15:00
1:35 AM,53.6,50.0,88,30.32,10.0,Calm,Calm,-,N/A,,Clear,0,2012-11-30 06:35:00
1:55 AM,53.6,50.0,88,30.32,10.0,Calm,Calm,-,N/A,,Clear,0,2012-11-30 06:55:00
2:15 AM,51.8,50.0,94,30.32,10.0,East,3.5,-,N/A,,Clear,80,2012-11-30 07:15:00
2:35 AM,51.8,50.0,94,30.32,10.0,Calm,Calm,-,N/A,,Clear,0,2012-11-30 07:35:00
2:55 AM,51.8,50.0,94,30.32,10.0,Calm,Calm,-,N/A,,Clear,0,2012-11-30 07:55:00
3:15 AM,51.8,50.0,94,30.31,10.0,Calm,Calm,-,N/A,,Clear,0,2012-11-30 08:15:00
3:35 AM,51.8,50.0,94,30.31,10.0,Calm,Calm,-,N/A,,Clear,0,2012-11-30 08:35:00
3:55 AM,51.8,48.2,88,30.32,10.0,Calm,Calm,-,N/A,,Clear,0,2012-11-30 08:55:00
4:15 AM,51.8,48.2,88,30.32,10.0,Calm,Calm,-,N/A,,Clear,0,2012-11-30 09:15:00
4:35 AM,50.0,48.2,94,30.32,10.0,Calm,Calm,-,N/A,,Clear,0,2012-11-30 09:35:00
4:55 AM,50.0,48.2,94,30.32,10.0,Calm,Calm,-,N/A,,Clear,0,2012-11-30 09:55:00
5:15 AM,50.0,48.2,94,30.32,10.0,Calm,Calm,-,N/A,,Clear,0,2012-11-30 10:15:00
5:35 AM,50.0,48.2,94,30.33,10.0,Calm,Calm,-,N/A,,Clear,0,2012-11-30 10:35:00
5:55 AM,50.0,46.4,87,30.33,10.0,ENE,3.5,-,N/A,,Clear,60,2012-11-30 10:55:00
6:15 AM,50.0,46.4,87,30.33,10.0,ENE,3.5,-,N/A,,Clear,70,2012-11-30 11:15:00
6:35 AM,50.0,46.4,87,30.33,10.0,Calm,Calm,-,N/A,,Clear,0,2012-11-30 11:35:00
6:55 AM,50.0,46.4,87,30.34,10.0,Calm,Calm,-,N/A,,Clear,0,2012-11-30 11:55:00
7:15 AM,50.0,46.4,87,30.34,10.0,Calm,Calm,-,N/A,,Clear,0,2012-11-30 12:15:00
7:35 AM,50.0,46.4,87,30.34,7.0,NE,3.5,-,N/A,,Clear,50,2012-11-30 12:35:00
7:55 AM,50.0,48.2,94,30.34,7.0,ENE,4.6,-,N/A,,Clear,70,2012-11-30 12:55:00
8:15 AM,51.8,48.2,88,30.34,10.0,Calm,Calm,-,N/A,,Clear,0,2012-11-30 13:15:00
8:35 AM,51.8,50.0,94,30.35,10.0,East,3.5,-,N/A,,Clear,90,2012-11-30 13:35:00
8:55 AM,53.6,50.0,88,30.35,10.0,Calm,Calm,-,N/A,,Clear,0,2012-11-30 13:55:00
9:15 AM,55.4,51.8,88,30.35,10.0,ENE,3.5,-,N/A,,Clear,60,2012-11-30 14:15:00
9:35 AM,57.2,51.8,82,30.35,10.0,ENE,3.5,-,N/A,,Clear,60,2012-11-30 14:35:00
9:55 AM,59.0,53.6,82,30.36,10.0,NE,3.5,-,N/A,,Clear,50,2012-11-30 14:55:00
10:15 AM,60.8,53.6,77,30.36,10.0,ENE,3.5,-,N/A,,Clear,60,2012-11-30 15:15:00
10:35 AM,64.4,53.6,68,30.35,10.0,NE,4.6,-,N/A,,Clear,40,2012-11-30 15:35:00
10:55 AM,66.2,53.6,64,30.35,10.0,Calm,Calm,-,N/A,,Clear,0,2012-11-30 15:55:00
11:15 AM,68.0,53.6,60,30.34,10.0,SE,4.6,-,N/A,,Clear,140,2012-11-30 16:15:00
11:35 AM,69.8,53.6,56,30.33,10.0,ESE,5.8,-,N/A,,Clear,120,2012-11-30 16:35:00
11:55 AM,69.8,53.6,56,30.32,10.0,Calm,Calm,-,N/A,,Clear,0,2012-11-30 16:55:00
12:15 PM,71.6,53.6,53,30.31,10.0,SSE,8.1,-,N/A,,Clear,150,2012-11-30 17:15:00
12:35 PM,73.4,53.6,50,30.30,10.0,SSE,8.1,-,N/A,,Clear,150,2012-11-30 17:35:00
12:55 PM,71.6,53.6,53,30.28,10.0,SE,5.8,-,N/A,,Clear,140,2012-11-30 17:55:00
1:15 PM,71.6,51.8,50,30.28,10.0,Calm,Calm,-,N/A,,Scattered Clouds,0,2012-11-30 18:15:00
1:35 PM,71.6,51.8,50,30.27,10.0,Calm,Calm,-,N/A,,Scattered Clouds,0,2012-11-30 18:35:00
1:55 PM,71.6,51.8,50,30.27,10.0,ESE,3.5,-,N/A,,Mostly Cloudy,110,2012-11-30 18:55:00
2:15 PM,73.4,51.8,47,30.26,10.0,SE,4.6,-,N/A,,Mostly Cloudy,140,2012-11-30 19:15:00
2:35 PM,71.6,51.8,50,30.25,10.0,ESE,5.8,-,N/A,,Scattered Clouds,110,2012-11-30 19:35:00
2:55 PM,71.6,51.8,50,30.25,10.0,East,4.6,-,N/A,,Scattered Clouds,90,2012-11-30 19:55:00
3:15 PM,71.6,51.8,50,30.25,10.0,Calm,Calm,-,N/A,,Clear,0,2012-11-30 20:15:00
3:35 PM,73.4,50.0,44,30.24,10.0,ENE,3.5,-,N/A,,Mostly Cloudy,70,2012-11-30 20:35:00
3:55 PM,73.4,50.0,44,30.25,10.0,East,4.6,-,N/A,,Overcast,100,2012-11-30 20:55:00
4:15 PM,73.4,50.0,44,30.25,10.0,East,4.6,-,N/A,,Overcast,80,2012-11-30 21:15:00
4:35 PM,71.6,50.0,46,30.25,10.0,Calm,Calm,-,N/A,,Mostly Cloudy,0,2012-11-30 21:35:00
4:55 PM,71.6,51.8,50,30.25,10.0,Calm,Calm,-,N/A,,Mostly Cloudy,0,2012-11-30 21:55:00
5:15 PM,69.8,51.8,53,30.25,10.0,Calm,Calm,-,N/A,,Scattered Clouds,0,2012-11-30 22:15:00
5:35 PM,68.0,51.8,56,30.25,10.0,Calm,Calm,-,N/A,,Clear,0,2012-11-30 22:35:00
5:55 PM,62.6,53.6,72,30.25,10.0,Calm,Calm,-,N/A,,Clear,0,2012-11-30 22:55:00
6:15 PM,62.6,53.6,72,30.25,10.0,Calm,Calm,-,N/A,,Scattered Clouds,0,2012-11-30 23:15:00
6:35 PM,60.8,53.6,77,30.26,10.0,Calm,Calm,-,N/A,,Mostly Cloudy,0,2012-11-30 23:35:00
7:15 PM,60.8,53.6,77,30.26,10.0,Calm,Calm,-,N/A,,Mostly Cloudy,0,2012-12-01 00:15:00
7:35 PM,60.8,53.6,77,30.27,10.0,Calm,Calm,-,N/A,,Mostly Cloudy,0,2012-12-01 00:35:00
7:55 PM,60.8,53.6,77,30.27,10.0,Calm,Calm,-,N/A,,Mostly Cloudy,0,2012-12-01 00:55:00
8:15 PM,60.8,53.6,77,30.27,10.0,Calm,Calm,-,N/A,,Mostly Cloudy,0,2012-12-01 01:15:00
8:35 PM,60.8,53.6,77,30.27,10.0,Calm,Calm,-,N/A,,Mostly Cloudy,0,2012-12-01 01:35:00
8:55 PM,62.6,51.8,68,30.28,10.0,Calm,Calm,-,N/A,,Scattered Clouds,0,2012-12-01 01:55:00
9:15 PM,62.6,51.8,68,30.28,10.0,Calm,Calm,-,N/A,,Scattered Clouds,0,2012-12-01 02:15:00
9:35 PM,62.6,53.6,72,30.28,10.0,Calm,Calm,-,N/A,,Scattered Clouds,0,2012-12-01 02:35:00
10:15 PM,62.6,53.6,72,30.28,10.0,Calm,Calm,-,N/A,,Mostly Cloudy,0,2012-12-01 03:15:00
10:35 PM,62.6,53.6,72,30.29,10.0,Calm,Calm,-,N/A,,Mostly Cloudy,0,2012-12-01 03:35:00
10:55 PM,60.8,53.6,77,30.28,10.0,East,4.6,-,N/A,,Scattered Clouds,90,2012-12-01 03:55:00
11:15 PM,60.8,53.6,77,30.28,-9999.0,East,3.5,-,N/A,,Scattered Clouds,80,2012-12-01 04:15:00
11:35 PM,60.8,53.6,77,30.28,-9999.0,ESE,3.5,-,N/A,,Clear,120,2012-12-01 04:35:00
11:55 PM,60.8,53.6,77,30.28,-9999.0,East,3.5,-,N/A,,Clear,90,2012-12-01 04:55:00